ELECTRON KICK STAGE R/B

Satellite information

Favourite Embed

Satellite Type and Status

ROCKET BODYIN ORBIT

Key statistics

Satellite ELECTRON KICK STAGE R/B at a glance.

Uptime

827

Days in orbit

Revolutions

≈ 14.7

Per day

Orbit

SSO

Sun Synchronous Orbit

Inclination

99.3

Latest

Satellite identification and parameters

Extended collection of information and parameters for ELECTRON KICK STAGE R/B.

Object identification

Identified? True

Debris? False

Object name: ELECTRON KICK STAGE R/B

International designator: 2023-100H

Object number (NORAD): 57393

Object ID (CCSDS): 57393

Country: UNITED STATES OF AMERICA (US)

Current information (Y/N): Y

RCS size: MEDIUM

Orbital parameters

Period: 98.261 minutes

Inclination: 99.3434 deg

SMA: 7053.646 km

Apoapsis: 899.024 km

Periapsis: 451.999 km

RAAN: 173.9488 deg

Eccentricy: 0.0316875

Argument of periapsis: 237.9256 deg

Mean anomaly: 119.0815 deg

Mean motion: 14.65487931 rev/day

Mean motion (dot): 0.00010848 rev/day2

B* drag term: 0.00094938 1/REarth

Two-line elements (TLE)

Creation date: Oct. 22, 2025, 12:06 a.m.

Reference frame: TEME

Reference center: EARTH

Epoch: Oct. 21, 2025, 4:12 p.m. UTC

TLE line 0: 0 ELECTRON KICK STAGE R/B

TLE line 1: 1 57393U 23100H 25294.67542884 .00010848 00000-0 94938-3 0 9996

TLE line 2: 2 57393 99.3434 173.9488 0316875 237.9256 119.0815 14.65487931120281

Live tracking on map

Real-time ground track for satellite ELECTRON KICK STAGE R/B.

In-orbit conjunctions

A list of the most updated potential collisions computed for object ELECTRON KICK STAGE R/B.

Target Orbit TCA Probability of collision Miss distance Type
OBJECT D SSO 2025-08-18 16:09:17 0.002380137 680.0 (m) UNKNOWN
DMSP 5D-2 F13 DEB SSO 2024-12-24 07:45:48 0.0002565016 359.0 (m) DEBRIS
FENGYUN 1C DEB SSO 2024-09-26 12:07:59 0.0002938351 824.0 (m) DEBRIS
CZ-6A DEB SSO 2024-09-02 18:21:54 0.000582233 132.0 (m) DEBRIS
COSMOS 1275 DEB LEO 2024-09-02 01:37:37 0.000103238 674.0 (m) DEBRIS

Associated space launch

The "Baby Come Back" mission includes NASA's Starling project, which consists of four CubeSats designed to test technologies for future swarm missions. Telesat contributes the LEO 3 demonstration satellite, ensuring continuity for customers and ecosystem vendor testing. Additionally, two 3U satellites carrying GNSS-RO payloads from SpinGlobal will replenish their constellation of over 100 multipurpose satellites.

ELECTRON KICK STAGE R/B was lifted into orbit during the mission ‘Electron | Baby Come Back (Rideshare)’, on board a Electron space rocket.

The launch took place on July 18, 2023, 1:27 a.m. from Rocket Lab Launch Complex 1B.

For more information about the launch, click the button.

Launch to space Electron | Baby Come Back (Rideshare)
Electron | Baby Come Back (Rideshare)

Agency: N/A

Status: Launch Successful

Launch date: July 18, 2023, 1:27 a.m. UTC

Rocket: Electron

Launch pad: Rocket Lab Launch Complex 1B

Location: Rocket Lab Launch Complex 1, Mahia Peninsula, New Zealand

...

Latest news about this satellite

News about space launch
NASA boosts science objectives for Starling swarm

NASA is expanding testing of distributed autonomy for its first satellite swarm, Starling. The post NASA boosts science objectives for Starling swarm appeared first on SpaceNews.

News about space launch
Launch Roundup: Rocket Lab conducts Electron reuse attempt, SpaceX flies two Starlink v2 missions

The week of July 16 through July 23 saw four more launches take place around the world, potentially increasing the orbital launch count to 108 so far in 2023. This included Rocket Lab’s launch of the “Baby Come Back” mission (which featured a first stage ...

News about space launch
Rocket Lab launches 7 satellites, recovers first stage booster

The ‘Baby Come Back’ mission successfully lifted off from Launch Complex 1B on the Mahia Peninsula in New Zealand at 01:27 UTC,...


Newsletter sign-up

Weekly statistics, charts and insights to help you stay on top of the space industry.